CZ-4C R/B, 40341

Orbit data source: Space-Track

CZ-4C R/B, 40341 is space debris in LEO originally from a launch on Wed, 10 Dec 2014 UTC launched from the Jiuquan Satellite Launch Center, China (JSC). Debris objects in space refer to the collection of defunct objects orbiting the Earth. Examples of debris include non-operational satellites, rocket bodies, and fragments generated from explosions, collisions, or faulty payload assembly.

Loading next visibility...
Identifier
40341, 2014-080D
Orbit
LEO
Country
Flag of CNCN / PRC
Related business
Manufacturer
SAST
Mission
Spacecraft
Bus & Motor
CZ-4 STAGE 3, Unknown motor
Mass
~1,000 kg wet, ~1,000 kg dry
Launch date (UTC)
2014-12-10 (12 years ago)
Launch vehicle
Unknown
Launch site
Jiuquan Satellite Launch Center, China (JSC)
Object type
Payload
Rocket body
Debris
Shape & HBR
Cyl, 2.5 m
Radar Cross Section
20.385 m², Large (>1 m²)

Expand to show TLE details & history
Last TLE update: 2 days ago

TLE from 2 days ago
0 CZ-4C R/B
1 40341U 14080D   26171.39373317 -.00000011  00000-0  42404-4 0  9999
2 40341  63.4236 209.4051 0539423 352.8751   6.4830 13.69869563576269
Epoch: 2026-06-20T09:26Z
TLE epoch observation values (Epoch: 2026-06-20T09:26:58.545Z)
Latitude
-0.00011°
Longitude
159.05211°
Altitude
606.649 km
Speed
7.756 km/s
True Right ascension
13h 57m 37s
True Declination
0° 00' 00"
Sunlit
Object was in full shadow at epoch
Visualization orbit readout
Latitude
Unknown
Longitude
Unknown
Altitude
Unknown
Speed
Unknown
Apparent Right ascension
Unknown
Apparent Declination
Unknown
Sunlit
N/A
Visualization observer readout
Local Sidereal Time
21:35:24
Azimuth
Unknown
Elevation
Unknown
Doppler factor
Unknown
Orbital elements
Apogee altitude
1,396.778 km
Perigee altitude
600.915 km
Semi-major axis
7,376.983 km
Eccentricity
0.05394
Inclination
63.4236°
RAAN
209.4051°
Arg. of periapsis
352.8751°
True anomaly
7.23086°
Mean anomaly
6.483°
Eccentric anomaly
6.85172°
Mean motion
3.42551 °/min
Orbital period
105.09 mins
BSTAR
0.000042404
Loading maneuver chart data...
Computing Atmospheric mass density...
Loading historical data...
Loading historical data...
Loading historical data...
Loading historical data...
Loading historical data...
Loading historical data...
Loading historical data...

Documentation

Showing up to 5 results
|